sat.trackr.live / text

‹ back to catalog

TRANSPORTER-12 OBJECT AY

NORAD 62655 · 2025-009AY

PAYLOAD ACTIVE UNKNOWN

§ Identity

Operator
Country
TBD
Launch date
2025-01-14
Launch site
AFWTR
Launch vehicle
Mass (kg)
RCS (m²)

External: N2YO · Heavens-Above · Gunter

§ Orbital elements

Epoch: 2026-05-24T23:18:22.371264Z

Period
93.50 min
Inclination
97.4033°
Eccentricity
0.0001137
Mean motion
15.40114437 rev/d
Perigee alt
445.0 km
Apogee alt
446.5 km
Semi-major
6,823.9 km
B*
6.0573e-4
RAAN
231.0981°
Arg perigee
65.4472°
Mean anomaly
294.6892°
Rev number
7,562

§ Raw data

TRANSPORTER-12 OBJECT AY1 62655U 25009AY  26144.97109226  .00024220  00000+0  60573-3 0  99962 62655  97.4033 231.0981 0001137  65.4472 294.6892 15.40114437 75626

JSON: /api/v1/satellites/62655 · /tle

For live sub-satellite position, see the globe view (requires WebGL).

§ Visibility from observer

Set your observer location to see the next 7 days of passes ≥ 10°. The values pass through the URL so the page stays shareable.

No JS? Fill the form by hand. The geolocation button needs JavaScript.